[[{"header":{"parameterUnit":"m.s-1","parameterCategory":1,"la1":30.2991,"la2":30.254,"lo1":-89.0895,"lo2":-89.0444,"dy":0.0017,"dx":0.0017,"nx":28,"ny":28,"refTime":"2025-08-04T09:00:00:Z","depth":0,"parameterNumber":2,"parameterNumberName":"U-component_of_WINDS"},"data":[0,0,0,0,0,0,0,0,0,0,0,0,0,0,0,0,0,0,0,0,0,0,0,0,0,0,0,0,0,0,0,0,0,0,0,0,0,0,0,0,0,0,0,0,0,0,0,0,0,0,0,0,0,0,0,0,0,0,-1.5114,-1.5115,0,-1.5179,-1.518,-1.5181,-1.5159,-1.5158,-1.5156,-1.5155,-1.5224,-1.5227,-1.523,0,0,0,0,0,0,0,0,0,0,0,0,0,-1.4971,-1.4974,-1.5114,-1.5115,-1.5115,-1.5179,-1.518,-1.5181,-1.516,-1.5158,-1.5156,-1.5154,-1.5223,-1.5227,-1.523,0,0,0,0,0,0,0,0,0,0,0,0,0,-1.5034,-1.4975,-1.5114,-1.5112,-1.5113,-1.5179,-1.518,-1.5181,-1.516,-1.5158,-1.5156,-1.5154,-1.5222,-1.5226,-1.5231,-1.5303,0,0,-1.5245,-1.5248,0,0,0,0,0,0,0,0,-1.5031,-1.504,-1.5112,-1.5112,-1.5113,-1.5159,-1.5155,-1.5222,-1.516,-1.5142,-1.5155,-1.5153,-1.5204,-1.521,-1.5227,-1.5306,-1.5309,-1.5246,-1.5249,-1.5251,-1.5252,0,0,0,0,0,0,0,-1.5026,-1.5037,-1.514,-1.5113,-1.5114,-1.5109,-1.5115,-1.5168,-1.5184,-1.5144,-1.5142,-1.515,-1.5204,-1.5223,-1.5229,-1.531,-1.5246,-1.525,-1.5253,-1.5255,-1.5451,-1.5454,0,0,0,0,0,0,-1.5021,-1.5033,-1.5138,-1.5142,-1.5066,-1.5113,-1.5121,-1.5146,-1.5184,-1.5187,-1.5152,-1.5149,-1.5216,-1.5223,-1.5231,-1.5317,-1.5251,-1.5255,-1.5258,-1.5449,-1.5452,-1.5455,0,0,0,0,0,0,-1.5018,-1.5031,-1.5135,-1.5087,-1.51,-1.5118,-1.5147,-1.5149,-1.5167,-1.519,-1.5193,-1.5168,-1.5214,-1.5224,-1.5285,-1.532,-1.5257,-1.5262,-1.5446,-1.545,-1.5453,-1.5491,0,0,0,0,0,0,-1.5014,-1.503,-1.5057,-1.5088,-1.5103,-1.5188,-1.5149,-1.5152,-1.5175,-1.5172,-1.5206,-1.5209,-1.5213,-1.5278,-1.529,-1.5325,-1.5265,-1.5443,-1.5448,-1.5452,-1.5487,-1.5496,-1.5503,0,0,0,0,0,-1.5009,-1.5066,-1.5059,-1.5072,-1.5137,-1.519,-1.5198,-1.5201,-1.5178,-1.5206,-1.5221,-1.5208,-1.5314,-1.5285,-1.5298,-1.5335,-1.5441,-1.5447,-1.5452,-1.5483,-1.5494,-1.5503,0,0,0,0,0,0,-1.5039,-1.507,-1.5062,-1.513,-1.5158,-1.5186,-1.5221,-1.5213,-1.5247,-1.5243,-1.5246,-1.5254,-1.5316,-1.5332,-1.5298,-1.5406,-1.5374,-1.5382,-1.5394,-1.5404,-1.5412,-1.5407,-1.5269,0,0,0,0,0,-1.5054,-1.5094,-1.5118,-1.5176,-1.519,-1.5203,-1.5226,-1.5226,-1.5255,-1.5266,-1.5285,-1.5314,-1.5354,-1.538,-1.5418,-1.5489,-1.5496,-1.5521,-1.5529,-1.5536,-1.5543,-1.5581,-1.5593,-1.5472,-1.5472,-1.5472,0,0,-1.5084,-1.5106,-1.5131,-1.5182,-1.5203,-1.5245,-1.5213,-1.5258,-1.5289,-1.5274,-1.5332,-1.5347,-1.5379,-1.5445,-1.5475,-1.546,-1.5577,-1.5543,-1.5548,-1.5551,-1.5588,-1.5599,-1.5609,-1.5476,-1.5475,-1.5475,0,0,-1.516,-1.5181,-1.5231,-1.5252,-1.5285,-1.5293,-1.5305,-1.5335,-1.5344,-1.5402,-1.5391,-1.5428,-1.5497,-1.552,-1.5541,-1.5626,-1.5616,-1.5638,-1.568,-1.5718,-1.5727,-1.5735,-1.5765,-1.5776,-1.5645,-1.5645,-1.5645,0,-1.5194,-1.5256,-1.5258,-1.5304,-1.5326,-1.5314,-1.5364,-1.5386,-1.5429,-1.5445,-1.5427,-1.5512,-1.5533,-1.5605,-1.5625,-1.5643,-1.5657,-1.5634,-1.5725,-1.5734,-1.5742,-1.577,-1.5782,-1.5648,-1.5647,-1.5647,-1.5647,0,-1.5295,-1.5338,-1.5375,-1.5416,-1.5443,-1.5491,-1.5501,-1.5528,-1.5526,-1.5536,-1.5596,-1.5621,-1.5663,-1.568,-1.5679,-1.5751,-1.5741,-1.5724,-1.5692,-1.5756,-1.5782,-1.5793,-1.5651,-1.565,-1.565,-1.5649,0,0,-1.5392,-1.5433,-1.5446,-1.5465,-1.5499,-1.5533,-1.558,-1.5621,-1.5644,-1.5675,-1.5715,-1.5773,-1.5758,-1.5781,-1.5783,-1.5816,-1.5881,-1.5795,-1.5796,-1.581,-1.5962,-1.5973,-1.5986,-1.5875,-1.5877,-1.5878,-1.5959,0,-1.547,-1.5553,-1.5556,-1.5632,-1.5672,-1.566,-1.5702,-1.5728,-1.5739,-1.5774,-1.5787,-1.5828,-1.5805,-1.5819,-1.5851,-1.5866,-1.5911,-1.586,-1.5912,-1.5914,-1.5903,-1.6,-1.6013,-1.6087,-1.5969,-1.5971,-1.5973,0,-1.5573,-1.5605,-1.5685,-1.5713,-1.573,-1.5767,-1.5805,-1.5839,-1.5868,-1.5874,-1.59,-1.5897,-1.5946,-1.5912,-1.598,-1.5945,-1.5967,-1.5977,-1.598,-1.5984,-1.5946,-1.6006,-1.6111,-1.6122,-1.5989,-1.5988,-1.5987,0,-1.5634,-1.5698,-1.5754,-1.577,-1.5805,-1.5831,-1.5847,-1.5874,-1.5898,-1.5932,-1.5947,-1.5986,-1.6007,-1.6037,-1.6044,-1.602,-1.6112,-1.6079,-1.6118,-1.6118,-1.6138,-1.6136,-1.6247,-1.6153,-1.6153,-1.6152,-1.6152,0,-1.5721,-1.577,-1.5782,-1.5816,-1.5871,-1.5874,-1.5928,-1.5942,-1.5967,-1.6004,-1.5997,-1.6032,-1.6039,-1.6076,-1.6082,-1.6137,-1.6147,-1.6153,-1.6154,-1.6153,-1.6152,-1.6167,-1.6161,-1.6155,-1.6155,-1.6154,-1.6154,0,-1.5799,-1.5809,-1.5868,-1.5896,-1.5905,-1.5943,-1.5968,-1.6001,-1.6011,-1.6058,-1.6069,-1.6086,-1.6128,-1.6139,-1.619,-1.6194,-1.6259,-1.6255,-1.6248,-1.6248,-1.6286,-1.6282,-1.6409,-1.6426,-1.6321,-1.6322,-1.6323,0,-1.5853,-1.589,-1.5922,-1.5946,-1.5963,-1.6001,-1.6026,-1.6031,-1.6057,-1.6093,-1.6122,-1.6164,-1.6197,-1.6266,-1.6283,-1.6322,-1.6319,-1.6361,-1.6325,-1.6323,-1.6319,-1.6316,-1.632,-1.6367,-1.6369,-1.6369,-1.637,0,-1.5948,-1.5951,-1.5986,-1.6023,-1.6052,-1.6082,-1.611,-1.6131,-1.614,-1.6169,-1.6212,-1.6239,-1.629,-1.6332,-1.6371,-1.6388,-1.6381,-1.6382,-1.6392,-1.6392,-1.6386,-1.6389,-1.6266,-1.6378,-1.6378,-1.6377,-1.6377,-1.6376,-1.6015,-1.6047,-1.6074,-1.6114,-1.6136,-1.6162,-1.6194,-1.6209,-1.6244,-1.6287,-1.6288,-1.6335,-1.6363,-1.6415,-1.6434,-1.6472,-1.6459,-1.6475,-1.6479,-1.6482,-1.6485,-1.6381,-1.6479,-1.6479,-1.6479,-1.6478,-1.6478,0,-1.6109,-1.6126,-1.6162,-1.6201,-1.6233,-1.6223,-1.6253,-1.628,-1.6321,-1.6348,-1.6381,-1.6431,-1.6471,-1.6491,-1.6532,-1.6557,-1.6555,-1.6568,-1.6565,-1.6569,-1.6495,-1.6481,-1.6569,-1.6569,-1.6569,-1.6569,-1.6569,-1.6569,-1.6161,-1.6215,-1.6222,-1.6286,-1.6303,-1.6349,-1.6367,-1.6392,-1.6413,-1.6468,-1.6502,-1.6514,-1.6539,-1.658,-1.6617,-1.6622,-1.6637,-1.6651,-1.6654,-1.6584,-1.6575,-1.6566,-1.6553,-1.6654,-1.6654,-1.6725,-1.6726,-1.6727]},{"header":{"parameterUnit":"m.s-1","parameterCategory":1,"la1":30.2991,"la2":30.254,"lo1":-89.0895,"lo2":-89.0444,"dy":0.0017,"dx":0.0017,"nx":28,"ny":28,"refTime":"2025-08-04T09:00:00:Z","depth":0,"parameterNumber":3,"parameterNumberName":"V-component_of_WINDS"},"data":[0,0,0,0,0,0,0,0,0,0,0,0,0,0,0,0,0,0,0,0,0,0,0,0,0,0,0,0,0,0,0,0,0,0,0,0,0,0,0,0,0,0,0,0,0,0,0,0,0,0,0,0,0,0,0,0,0,0,-0.1576,-0.1576,0,-0.1637,-0.1638,-0.1638,-0.1691,-0.1691,-0.1692,-0.1692,-0.1757,-0.1758,-0.1759,0,0,0,0,0,0,0,0,0,0,0,0,0,-0.1507,-0.1508,-0.1576,-0.1576,-0.1577,-0.1637,-0.1638,-0.1638,-0.1691,-0.1691,-0.1692,-0.1693,-0.1757,-0.1758,-0.1759,0,0,0,0,0,0,0,0,0,0,0,0,0,-0.1549,-0.1508,-0.1576,-0.161,-0.1614,-0.1637,-0.1638,-0.1639,-0.169,-0.1691,-0.1692,-0.1693,-0.1756,-0.1758,-0.176,-0.1753,0,0,-0.1765,-0.1766,0,0,0,0,0,0,0,0,-0.1547,-0.1552,-0.1605,-0.1608,-0.1612,-0.1657,-0.1637,-0.1677,-0.169,-0.1662,-0.1692,-0.1693,-0.1723,-0.1728,-0.1737,-0.1756,-0.1759,-0.1765,-0.1766,-0.1767,-0.1768,0,0,0,0,0,0,0,-0.1544,-0.1549,-0.16,-0.1605,-0.161,-0.1624,-0.1631,-0.1645,-0.1687,-0.1664,-0.1668,-0.1674,-0.1725,-0.1735,-0.1739,-0.176,-0.1765,-0.1767,-0.1768,-0.1769,-0.1778,-0.1777,0,0,0,0,0,0,-0.1535,-0.1547,-0.1598,-0.1602,-0.1581,-0.1624,-0.1632,-0.1642,-0.1687,-0.1694,-0.1674,-0.1677,-0.1732,-0.1737,-0.1742,-0.1737,-0.1767,-0.1769,-0.177,-0.1778,-0.1777,-0.1777,0,0,0,0,0,0,-0.1533,-0.1539,-0.1596,-0.1575,-0.1584,-0.1625,-0.1635,-0.1643,-0.1653,-0.1694,-0.1702,-0.1676,-0.1733,-0.1739,-0.175,-0.174,-0.1769,-0.1771,-0.1779,-0.1778,-0.1777,-0.1728,0,0,0,0,0,0,-0.1531,-0.1538,-0.1535,-0.1575,-0.1584,-0.1602,-0.1634,-0.1643,-0.1655,-0.166,-0.1698,-0.1705,-0.1734,-0.1747,-0.1752,-0.1743,-0.1772,-0.178,-0.1779,-0.1777,-0.1731,-0.1725,-0.1721,0,0,0,0,0,-0.1529,-0.152,-0.1535,-0.1541,-0.1582,-0.1601,-0.1607,-0.1639,-0.1654,-0.1652,-0.1679,-0.1704,-0.1741,-0.1748,-0.1753,-0.1745,-0.1781,-0.1779,-0.1778,-0.1733,-0.1726,-0.1721,0,0,0,0,0,0,-0.1478,-0.1525,-0.1543,-0.1546,-0.1569,-0.161,-0.1608,-0.1631,-0.1651,-0.1654,-0.1694,-0.1703,-0.1709,-0.1729,-0.1735,-0.1742,-0.1764,-0.1764,-0.1729,-0.1723,-0.1718,-0.1713,-0.1774,0,0,0,0,0,-0.1468,-0.1479,-0.152,-0.1518,-0.1529,-0.1566,-0.1576,-0.1599,-0.1625,-0.1635,-0.1663,-0.1687,-0.1705,-0.1715,-0.1733,-0.1734,-0.1744,-0.1732,-0.1727,-0.1722,-0.1721,-0.1724,-0.1719,-0.1771,-0.1771,-0.1771,0,0,-0.1446,-0.1473,-0.1477,-0.1509,-0.153,-0.1541,-0.1574,-0.1585,-0.1594,-0.1637,-0.1649,-0.167,-0.17,-0.1706,-0.171,-0.1723,-0.1709,-0.172,-0.1716,-0.1717,-0.1721,-0.1716,-0.1712,-0.1769,-0.177,-0.177,0,0,-0.1411,-0.1432,-0.1434,-0.1454,-0.1484,-0.151,-0.151,-0.1548,-0.1563,-0.1575,-0.1608,-0.162,-0.1649,-0.1669,-0.1683,-0.1658,-0.1682,-0.1663,-0.1636,-0.1638,-0.1634,-0.1631,-0.1622,-0.1618,-0.1661,-0.1661,-0.1661,0,-0.138,-0.1397,-0.1432,-0.1441,-0.1454,-0.1493,-0.1496,-0.1514,-0.1549,-0.1558,-0.1571,-0.1608,-0.1631,-0.1643,-0.1637,-0.1647,-0.1649,-0.1658,-0.1632,-0.1629,-0.1626,-0.1618,-0.1614,-0.1659,-0.1659,-0.1659,-0.1659,0,-0.1357,-0.1369,-0.1367,-0.1399,-0.1413,-0.1418,-0.1455,-0.1464,-0.1487,-0.1511,-0.1523,-0.1553,-0.1578,-0.1582,-0.1604,-0.1597,-0.1604,-0.1624,-0.1647,-0.1618,-0.1611,-0.1608,-0.1655,-0.1656,-0.1657,-0.1657,0,0,-0.1291,-0.1344,-0.1342,-0.1357,-0.1395,-0.1405,-0.1413,-0.1437,-0.1444,-0.1468,-0.1476,-0.15,-0.1518,-0.1534,-0.156,-0.1561,-0.154,-0.1582,-0.1583,-0.1572,-0.1534,-0.1518,-0.1514,-0.1556,-0.1556,-0.1555,-0.1531,0,-0.1262,-0.1277,-0.131,-0.1315,-0.1327,-0.1365,-0.1373,-0.1397,-0.142,-0.1434,-0.146,-0.1476,-0.15,-0.151,-0.1514,-0.1541,-0.1532,-0.1544,-0.1564,-0.1565,-0.1555,-0.151,-0.1493,-0.1469,-0.1529,-0.1528,-0.1528,0,-0.123,-0.1251,-0.1257,-0.1294,-0.13,-0.1306,-0.1331,-0.1344,-0.1372,-0.1389,-0.1407,-0.1435,-0.1447,-0.1468,-0.1485,-0.1492,-0.1503,-0.1518,-0.1518,-0.1521,-0.1544,-0.1511,-0.1462,-0.1458,-0.1524,-0.1524,-0.1525,0,-0.1181,-0.121,-0.1218,-0.123,-0.1274,-0.1277,-0.1295,-0.1325,-0.1338,-0.136,-0.1369,-0.1392,-0.1405,-0.1423,-0.1457,-0.147,-0.147,-0.1495,-0.1485,-0.1484,-0.1482,-0.1482,-0.1434,-0.149,-0.149,-0.149,-0.149,0,-0.1145,-0.1147,-0.1197,-0.1201,-0.1205,-0.1243,-0.1247,-0.1269,-0.1295,-0.1306,-0.1341,-0.135,-0.1395,-0.1409,-0.1436,-0.1446,-0.1452,-0.1466,-0.1473,-0.1463,-0.1461,-0.147,-0.1472,-0.1489,-0.1489,-0.149,-0.149,0,-0.109,-0.1123,-0.1134,-0.1175,-0.1185,-0.1186,-0.1222,-0.1228,-0.1254,-0.1267,-0.1272,-0.1313,-0.1332,-0.1368,-0.1397,-0.1415,-0.142,-0.1432,-0.1409,-0.1413,-0.1401,-0.1402,-0.1357,-0.1353,-0.1412,-0.1411,-0.1411,0,-0.1064,-0.1067,-0.1108,-0.1117,-0.1134,-0.1148,-0.1161,-0.1199,-0.1212,-0.1245,-0.1248,-0.127,-0.1289,-0.1319,-0.1351,-0.1374,-0.1387,-0.137,-0.1391,-0.1381,-0.1387,-0.1386,-0.1387,-0.1365,-0.1364,-0.1363,-0.1363,0,-0.1015,-0.1031,-0.1048,-0.1071,-0.1085,-0.1106,-0.1128,-0.1133,-0.1177,-0.1189,-0.1209,-0.1224,-0.1254,-0.1276,-0.1304,-0.1324,-0.1351,-0.1356,-0.1355,-0.1344,-0.1331,-0.1338,-0.1396,-0.1357,-0.1357,-0.1358,-0.1358,-0.1358,-0.0973,-0.0978,-0.1007,-0.1025,-0.1046,-0.1066,-0.1074,-0.1101,-0.1118,-0.1145,-0.1167,-0.1185,-0.1216,-0.1256,-0.1275,-0.129,-0.1303,-0.1301,-0.1301,-0.1299,-0.1295,-0.1329,-0.1296,-0.1296,-0.1296,-0.1296,-0.1296,0,-0.0925,-0.0947,-0.0963,-0.0993,-0.1007,-0.1031,-0.1057,-0.1067,-0.1083,-0.1108,-0.1127,-0.115,-0.1172,-0.1206,-0.1231,-0.1237,-0.125,-0.1242,-0.1242,-0.1246,-0.1283,-0.1281,-0.1231,-0.1231,-0.1231,-0.1231,-0.1231,-0.1231,-0.0902,-0.0911,-0.0931,-0.0951,-0.0973,-0.099,-0.1003,-0.1022,-0.1043,-0.1067,-0.1085,-0.1107,-0.1137,-0.1164,-0.1185,-0.1195,-0.1202,-0.119,-0.1204,-0.1237,-0.1243,-0.1249,-0.1248,-0.1192,-0.1192,-0.1166,-0.1166,-0.1166]}]]